Time,TemperatureF,DewpointF,PressureIn,WindDirection,WindDirectionDegrees,WindSpeedMPH,WindSpeedGustMPH,Humidity,HourlyPrecipIn,Conditions,Clouds,dailyrainin,SoftwareType,DateUTC
2013-07-20 00:44:00,82.0,79.0,30.12,East,93,0.0,2.0,90,0.00,,,0.00,,2013-07-20 04:44:00,
2013-07-20 01:32:00,81.0,78.0,30.10,ESE,114,0.0,1.0,91,0.00,,,0.00,,2013-07-20 05:32:00,
2013-07-20 01:52:00,81.0,78.0,30.09,East,85,0.0,1.0,92,0.00,,,0.00,,2013-07-20 05:52:00,
2013-07-20 02:32:00,81.0,78.0,30.08,East,93,1.0,3.0,92,0.00,,,0.00,,2013-07-20 06:32:00,
2013-07-20 02:43:00,81.0,78.0,30.07,ESE,108,0.0,1.0,92,0.00,,,0.00,,2013-07-20 06:43:00,
2013-07-20 02:52:00,80.0,77.0,30.07,ESE,118,0.0,3.0,92,0.00,,,0.00,,2013-07-20 06:52:00,
2013-07-20 03:01:00,80.0,78.0,30.06,East,91,0.0,3.0,93,0.00,,,0.00,,2013-07-20 07:01:00,
2013-07-20 03:12:00,80.0,78.0,30.06,East,91,0.0,0.0,93,0.00,,,0.00,,2013-07-20 07:12:00,
2013-07-20 03:22:00,80.0,78.0,30.06,East,86,0.0,1.0,93,0.00,,,0.00,,2013-07-20 07:22:00,
2013-07-20 03:33:00,80.0,78.0,30.05,ENE,75,0.0,1.0,93,0.00,,,0.00,,2013-07-20 07:33:00,
2013-07-20 03:44:00,80.0,78.0,30.06,ENE,58,1.0,4.0,93,0.00,,,0.00,,2013-07-20 07:44:00,
2013-07-20 03:53:00,80.0,78.0,30.05,East,82,0.0,4.0,93,0.00,,,0.00,,2013-07-20 07:53:00,
2013-07-20 04:02:00,80.0,78.0,30.05,East,87,0.0,1.0,93,0.00,,,0.00,,2013-07-20 08:02:00,
2013-07-20 04:11:00,80.0,78.0,30.06,East,87,0.0,0.0,93,0.00,,,0.00,,2013-07-20 08:11:00,
2013-07-20 04:22:00,80.0,78.0,30.06,East,86,0.0,1.0,93,0.00,,,0.00,,2013-07-20 08:22:00,
2013-07-20 04:32:00,80.0,78.0,30.06,East,87,0.0,1.0,93,0.00,,,0.00,,2013-07-20 08:32:00,
2013-07-20 04:44:00,80.0,78.0,30.06,East,99,0.0,3.0,93,0.00,,,0.00,,2013-07-20 08:44:00,
2013-07-20 04:52:00,80.0,78.0,30.06,SE,124,0.0,1.0,93,0.00,,,0.00,,2013-07-20 08:52:00,
2013-07-20 05:02:00,80.0,78.0,30.06,ESE,107,1.0,3.0,93,0.00,,,0.00,,2013-07-20 09:02:00,
2013-07-20 05:11:00,80.0,78.0,30.06,ESE,107,1.0,3.0,93,0.00,,,0.00,,2013-07-20 09:11:00,
2013-07-20 05:43:00,80.0,78.0,30.07,ESE,106,0.0,1.0,94,0.00,,,0.00,,2013-07-20 09:43:00,
2013-07-20 05:53:00,80.0,78.0,30.07,ESE,106,0.0,1.0,94,0.00,,,0.00,,2013-07-20 09:53:00,
2013-07-20 06:01:00,80.0,78.0,30.07,ESE,106,0.0,0.0,95,0.00,,,0.00,,2013-07-20 10:01:00,
2013-07-20 06:11:00,80.0,78.0,30.07,East,98,1.0,2.0,95,0.00,,,0.00,,2013-07-20 10:11:00,
2013-07-20 06:22:00,80.0,78.0,30.07,East,98,1.0,2.0,95,0.00,,,0.00,,2013-07-20 10:22:00,
2013-07-20 06:52:00,80.0,78.0,30.07,ESE,114,0.0,1.0,94,0.00,,,0.00,,2013-07-20 10:52:00,
2013-07-20 07:02:00,80.0,78.0,30.07,ESE,114,0.0,1.0,94,0.00,,,0.00,,2013-07-20 11:02:00,
2013-07-20 07:32:00,80.0,78.0,30.07,ESE,114,1.0,3.0,94,0.00,,,0.00,,2013-07-20 11:32:00,
2013-07-20 07:43:00,80.0,78.0,30.07,East,95,0.0,4.0,93,0.00,,,0.00,,2013-07-20 11:43:00,
2013-07-20 07:52:00,80.0,78.0,30.07,East,100,0.0,3.0,93,0.00,,,0.00,,2013-07-20 11:52:00,
2013-07-20 08:01:00,80.0,77.0,30.08,South,174,0.0,2.0,92,0.00,,,0.00,,2013-07-20 12:01:00,
2013-07-20 08:22:00,81.0,79.0,30.08,ESE,105,0.0,1.0,93,0.00,,,0.00,,2013-07-20 12:22:00,
2013-07-20 08:52:00,85.0,80.0,30.09,South,184,0.0,3.0,86,0.00,,,0.00,,2013-07-20 12:52:00,
2013-07-20 09:43:00,83.0,79.0,30.10,NNE,19,0.0,7.0,87,0.09,,,0.09,,2013-07-20 13:43:00,
2013-07-20 09:53:00,84.0,79.0,30.10,SSE,156,0.0,4.0,85,0.09,,,0.09,,2013-07-20 13:53:00,
2013-07-20 10:32:00,84.0,78.0,30.11,East,98,1.0,4.0,82,0.00,,,0.09,,2013-07-20 14:32:00,
2013-07-20 10:53:00,84.0,77.0,30.12,SSE,148,1.0,3.0,80,0.00,,,0.09,,2013-07-20 14:53:00,
2013-07-20 11:01:00,85.0,78.0,30.12,ESE,111,1.0,3.0,81,0.00,,,0.09,,2013-07-20 15:01:00,
2013-07-20 11:11:00,85.0,78.0,30.12,East,95,0.0,2.0,80,0.00,,,0.09,,2013-07-20 15:11:00,
2013-07-20 11:33:00,85.0,78.0,30.12,South,184,2.0,7.0,79,0.00,,,0.09,,2013-07-20 15:33:00,
2013-07-20 11:44:00,86.0,79.0,30.12,SW,226,1.0,6.0,79,0.00,,,0.09,,2013-07-20 15:44:00,
2013-07-20 11:53:00,86.0,79.0,30.12,ENE,78,3.0,11.0,79,0.00,,,0.09,,2013-07-20 15:53:00,
2013-07-20 12:01:00,86.0,79.0,30.12,ESE,121,1.0,9.0,80,0.00,,,0.09,,2013-07-20 16:01:00,
2013-07-20 12:11:00,87.0,79.0,30.12,ESE,111,1.0,7.0,78,0.00,,,0.09,,2013-07-20 16:11:00,
2013-07-20 12:22:00,87.0,79.0,30.12,SW,214,1.0,5.0,78,0.00,,,0.09,,2013-07-20 16:22:00,
2013-07-20 12:32:00,87.0,78.0,30.12,SSE,148,1.0,6.0,76,0.00,,,0.09,,2013-07-20 16:32:00,
2013-07-20 12:43:00,88.0,79.0,30.12,East,79,1.0,7.0,76,0.00,,,0.09,,2013-07-20 16:43:00,
2013-07-20 12:52:00,88.0,80.0,30.13,SSW,212,1.0,7.0,77,0.00,,,0.09,,2013-07-20 16:52:00,
2013-07-20 13:02:00,88.0,79.0,30.12,South,186,2.0,9.0,75,0.00,,,0.09,,2013-07-20 17:02:00,
2013-07-20 13:11:00,88.0,79.0,30.12,ENE,57,2.0,6.0,75,0.00,,,0.09,,2013-07-20 17:11:00,
2013-07-20 13:22:00,87.0,78.0,30.12,West,276,1.0,7.0,76,0.00,,,0.09,,2013-07-20 17:22:00,
2013-07-20 13:32:00,85.0,77.0,30.13,WSW,246,3.0,13.0,78,0.07,,,0.16,,2013-07-20 17:32:00,
2013-07-20 13:43:00,82.0,76.0,30.12,East,82,1.0,7.0,81,0.11,,,0.20,,2013-07-20 17:43:00,
2013-07-20 13:53:00,81.0,75.0,30.12,SSW,211,3.0,8.0,82,0.11,,,0.20,,2013-07-20 17:53:00,
2013-07-20 14:01:00,82.0,75.0,30.11,East,87,1.0,7.0,80,0.11,,,0.20,,2013-07-20 18:01:00,
2013-07-20 14:12:00,84.0,76.0,30.10,SSE,159,1.0,7.0,76,0.11,,,0.20,,2013-07-20 18:12:00,
2013-07-20 14:24:00,86.0,75.0,30.09,SE,143,2.0,7.0,70,0.11,,,0.20,,2013-07-20 18:24:00,
2013-07-20 14:36:00,87.0,75.0,30.08,South,172,3.0,7.0,67,0.04,,,0.20,,2013-07-20 18:36:00,
2013-07-20 14:46:00,86.0,75.0,30.08,ESE,113,1.0,7.0,71,0.00,,,0.20,,2013-07-20 18:46:00,
2013-07-20 14:55:00,86.0,76.0,30.08,SW,221,1.0,8.0,72,0.00,,,0.20,,2013-07-20 18:55:00,
2013-07-20 15:05:00,86.0,75.0,30.07,SSE,156,1.0,6.0,70,0.00,,,0.20,,2013-07-20 19:05:00,
2013-07-20 15:15:00,87.0,76.0,30.06,ENE,72,2.0,6.0,69,0.00,,,0.20,,2013-07-20 19:15:00,
2013-07-20 15:26:00,87.0,76.0,30.06,NNW,347,3.0,7.0,69,0.00,,,0.20,,2013-07-20 19:26:00,
2013-07-20 15:35:00,87.0,76.0,30.07,SW,235,2.0,7.0,70,0.00,,,0.20,,2013-07-20 19:35:00,
2013-07-20 15:43:00,88.0,77.0,30.06,ESE,108,2.0,7.0,71,0.00,,,0.20,,2013-07-20 19:43:00,
2013-07-20 15:54:00,88.0,79.0,30.07,East,82,2.0,8.0,74,0.00,,,0.20,,2013-07-20 19:54:00,
2013-07-20 16:06:00,87.0,77.0,30.07,SSW,198,2.0,7.0,73,0.00,,,0.20,,2013-07-20 20:06:00,
2013-07-20 16:24:00,88.0,79.0,30.07,SSW,194,2.0,7.0,74,0.00,,,0.20,,2013-07-20 20:24:00,
2013-07-20 16:33:00,88.0,79.0,30.07,SW,218,1.0,5.0,74,0.00,,,0.20,,2013-07-20 20:33:00,
2013-07-20 16:45:00,88.0,78.0,30.08,SW,214,2.0,7.0,72,0.00,,,0.20,,2013-07-20 20:45:00,
2013-07-20 16:56:00,88.0,78.0,30.08,SE,145,2.0,7.0,73,0.00,,,0.20,,2013-07-20 20:56:00,
2013-07-20 17:05:00,87.0,78.0,30.08,SSW,205,2.0,6.0,74,0.00,,,0.20,,2013-07-20 21:05:00,
2013-07-20 17:14:00,86.0,78.0,30.07,South,179,2.0,7.0,76,0.00,,,0.20,,2013-07-20 21:14:00,
2013-07-20 17:27:00,86.0,78.0,30.07,SW,233,1.0,9.0,78,0.00,,,0.20,,2013-07-20 21:27:00,
2013-07-20 17:45:00,85.0,77.0,30.07,SW,222,1.0,7.0,78,0.00,,,0.20,,2013-07-20 21:45:00,
2013-07-20 17:55:00,85.0,77.0,30.06,SE,138,2.0,7.0,78,0.00,,,0.20,,2013-07-20 21:55:00,
2013-07-20 18:06:00,85.0,78.0,30.07,WSW,242,2.0,7.0,80,0.00,,,0.20,,2013-07-20 22:06:00,
2013-07-20 18:25:00,84.0,78.0,30.06,ESE,121,1.0,5.0,82,0.00,,,0.20,,2013-07-20 22:25:00,
2013-07-20 18:34:00,84.0,78.0,30.06,WSW,238,2.0,5.0,82,0.00,,,0.20,,2013-07-20 22:34:00,
2013-07-20 18:47:00,84.0,78.0,30.07,SSW,210,1.0,5.0,82,0.00,,,0.20,,2013-07-20 22:47:00,
2013-07-20 18:55:00,84.0,78.0,30.07,SW,231,1.0,5.0,82,0.00,,,0.20,,2013-07-20 22:55:00,
2013-07-20 19:05:00,84.0,78.0,30.08,WNW,286,1.0,4.0,83,0.00,,,0.20,,2013-07-20 23:05:00,
2013-07-20 19:17:00,84.0,77.0,30.08,SW,235,0.0,3.0,80,0.00,,,0.20,,2013-07-20 23:17:00,
2013-07-20 19:28:00,84.0,77.0,30.08,WNW,284,2.0,4.0,79,0.00,,,0.20,,2013-07-20 23:28:00,
2013-07-20 19:37:00,81.0,72.0,30.09,NNW,327,3.0,13.0,73,0.00,,,0.20,,2013-07-20 23:37:00,
2013-07-20 19:44:00,80.0,71.0,30.08,NW,305,1.0,5.0,74,0.00,,,0.20,,2013-07-20 23:44:00,
2013-07-20 19:55:00,80.0,72.0,30.07,WNW,298,0.0,3.0,76,0.00,,,0.20,,2013-07-20 23:55:00,
2013-07-20 20:17:00,79.0,71.0,30.07,NNE,30,0.0,1.0,77,0.00,,,0.20,,2013-07-21 00:17:00,
2013-07-20 20:23:00,79.0,72.0,30.07,East,79,0.0,1.0,79,0.00,,,0.20,,2013-07-21 00:23:00,
2013-07-20 20:44:00,79.0,72.0,30.08,East,89,0.0,3.0,80,0.00,,,0.20,,2013-07-21 00:44:00,
2013-07-20 20:55:00,79.0,72.0,30.08,East,89,0.0,3.0,80,0.00,,,0.20,,2013-07-21 00:55:00,
2013-07-20 21:06:00,79.0,72.0,30.08,NNE,13,0.0,0.0,79,0.00,,,0.20,,2013-07-21 01:06:00,
2013-07-20 21:12:00,79.0,72.0,30.08,NNE,13,0.0,1.0,80,0.00,,,0.20,,2013-07-21 01:12:00,
2013-07-20 21:27:00,79.0,72.0,30.08,NNE,13,0.0,0.0,80,0.00,,,0.20,,2013-07-21 01:27:00,
2013-07-20 21:36:00,79.0,72.0,30.09,NNE,29,0.0,1.0,79,0.00,,,0.20,,2013-07-21 01:36:00,
2013-07-20 21:46:00,-999.0,-99.9,30.09,NE,39,0.0,0.0,-999,-99.99,,,-99.99,,2013-07-21 01:46:00,
2013-07-20 21:56:00,79.0,72.0,30.09,NE,37,0.0,0.0,79,0.00,,,0.20,,2013-07-21 01:56:00,
2013-07-20 22:06:00,79.0,72.0,30.09,NE,39,0.0,0.0,79,0.00,,,0.20,,2013-07-21 02:06:00,
2013-07-20 22:17:00,79.0,73.0,30.10,NE,39,0.0,0.0,81,0.00,,,0.20,,2013-07-21 02:17:00,
2013-07-20 22:27:00,79.0,73.0,30.10,NE,39,0.0,0.0,81,0.00,,,0.20,,2013-07-21 02:27:00,
2013-07-20 22:36:00,79.0,73.0,30.11,NE,39,0.0,0.0,83,0.00,,,0.20,,2013-07-21 02:36:00,
2013-07-20 22:44:00,79.0,74.0,30.11,NE,39,0.0,0.0,84,0.00,,,0.20,,2013-07-21 02:44:00,
2013-07-20 22:54:00,79.0,74.0,30.11,NE,39,0.0,0.0,84,0.00,,,0.20,,2013-07-21 02:54:00,
2013-07-20 23:04:00,79.0,74.0,30.11,NE,39,0.0,0.0,85,0.00,,,0.20,,2013-07-21 03:04:00,
2013-07-20 23:14:00,79.0,74.0,30.11,NE,50,0.0,0.0,86,0.00,,,0.20,,2013-07-21 03:14:00,
2013-07-20 23:25:00,79.0,74.0,30.11,NE,53,0.0,1.0,86,0.00,,,0.20,,2013-07-21 03:25:00,
2013-07-20 23:36:00,79.0,74.0,30.11,NE,53,0.0,1.0,86,0.00,,,0.20,,2013-07-21 03:36:00,
2013-07-20 23:44:00,79.0,75.0,30.11,NE,53,0.0,0.0,87,0.00,,,0.20,,2013-07-21 03:44:00,
2013-07-20 23:56:00,80.0,76.0,30.11,East,100,0.0,0.0,89,0.00,,,0.20,,2013-07-21 03:56:00,